Vorticity
3 3 3 3 3 4 5 5 4 4 4 4 4 3 3 4 4 4 4 4 5 5 5 4 4 4 4 4 4 4 4 4 4 4 4 4 4 5 5 6 6 7 8 8 9 10 10 11 11 11 12 12 12 12 12 13 13 13 14 15 16 16 16 16 16 15 15 15 15 15 14 14 14 14 14 14 13 13 13 12 12 12 12 11 11 11
3 3 3 4 4 4 5 5 5 4 4 5 4 4 4 4 4 4 4 4 4 4 4 4 4 4 4 3 3 3 3 3 4 4 4 5 5 6 7 7 8 9 9 10 11 11 12 12 12 13 13 13 13 13 13 14 14 15 15 15 16 15 15 14 14 13 13 13 13 13 13 13 13 13 13 13 13 12 12 12 12 12 12 12 12 12
3 3 4 4 4 4 5 5 5 5 4 5 5 5 4 4 4 4 4 4 4 4 4 4 4 4 4 3 3 3 4 4 4 5 5 6 6 7 8 9 10 11 11 12 13 13 13 13 14 14 14 14 13 13 14 14 14 14 14 14 13 13 12 11 11 11 11 11 11 11 11 11 11 12 12 12 12 12 12 12 12 13 13 13 13 14
3 4 4 4 4 4 4 4 5 5 5 5 5 5 4 4 4 4 4 3 3 4 4 4 4 4 4 4 4 4 4 5 5 6 6 7 8 9 10 11 12 13 14 14 14 14 14 14 14 14 14 13 13 13 13 12 12 12 12 12 12 12 12 12 12 13 13 13 14 14 15 15 15 16 16 17 17 17 18 17 17 17 17 17 17 17
3 4 4 4 4 4 4 4 4 5 4 4 4 4 4 4 4 3 3 3 3 3 3 4 4 4 4 4 5 5 5 6 6 7 8 9 10 11 12 13 14 15 15 15 15 15 14 14 14 13 13 12 12 12 12 12 12 13 14 15 16 17 18 19 20 21 22 23 23 24 24 25 26 25 25 25 25 26 27 27 27 27 27 26 24 23
3 4 4 4 4 4 4 4 4 4 4 4 3 3 3 3 3 3 3 3 3 4 4 4 4 5 5 6 6 6 7 7 8 9 10 11 12 13 14 15 15 15 15 15 14 14 13 13 13 12 12 12 12 13 14 15 17 19 21 23 25 26 27 28 29 30 31 32 33 33 33 33 32 31 30 32 34 35 36 37 38 38 39 38 37 35
4 4 4 5 5 5 4 4 4 4 3 3 3 3 3 3 3 3 3 3 3 4 4 5 5 6 7 7 7 8 9 9 10 11 12 13 14 15 16 15 15 15 14 14 13 13 13 13 13 13 14 15 16 18 20 22 25 27 29 31 32 33 33 33 34 34 35 35 35 34 32 31 32 34 36 40 43 45 46 46 46 45 44 45 45 45
5 5 5 5 5 5 4 4 4 4 3 3 3 3 3 3 3 3 3 4 5 5 5 6 7 8 9 9 9 10 11 11 13 14 15 15 16 16 16 15 15 14 13 13 13 13 14 15 16 18 19 21 23 24 26 28 30 31 33 34 34 33 33 34 34 34 35 34 34 34 34 36 39 41 45 47 49 49 48 45 43 41 40 41 42 42
5 5 5 4 4 4 4 4 4 3 3 3 3 3 3 3 3 4 4 6 7 7 7 6 7 9 11 11 12 13 13 14 14 15 16 17 17 17 16 15 15 14 14 14 15 16 18 21 23 25 27 28 29 29 30 31 32 33 33 33 33 32 32 33 33 34 36 41 43 43 43 45 44 43 45 45 43 40 38 36 35 34 33 34 36 38
4 4 4 4 4 4 3 3 3 3 3 4 4 4 4 3 3 3 5 7 8 9 9 9 9 10 12 14 15 15 15 16 17 17 17 17 17 16 16 16 16 16 17 18 20 23 25 28 29 30 31 31 31 31 32 32 33 33 33 33 32 32 32 32 32 33 35 39 44 47 45 42 40 38 36 35 33 32 30 29 29 29 29 30 32 34
4 3 3 3 3 4 4 3 2 2 3 4 4 5 7 7 6 5 5 7 8 9 11 12 13 13 13 15 16 16 16 16 16 17 18 17 17 17 17 18 19 21 23 25 27 29 31 32 32 32 31 31 31 31 31 32 32 33 33 33 33 33 33 33 34 34 33 34 37 40 38 35 33 30 27 25 24 24 24 25 26 26 27 27 27 28
3 3 3 3 3 3 4 4 3 3 4 4 5 6 8 10 10 8 7 7 8 10 12 14 16 17 17 17 17 17 17 16 16 17 17 18 18 19 20 22 24 26 29 31 32 33 34 33 32 31 30 29 29 30 30 32 33 34 34 35 35 35 35 35 35 36 35 35 35 35 33 32 30 28 24 20 19 19 23 24 22 21 21 21 21 21
2 2 2 3 3 4 4 3 3 4 6 7 7 7 6 7 9 11 11 11 12 13 13 14 17 19 20 19 18 17 17 18 18 18 19 20 21 23 25 27 29 31 32 33 34 34 34 32 31 30 29 29 29 30 31 32 34 35 35 35 35 35 34 35 36 37 38 36 35 34 32 31 30 27 24 20 18 19 23 23 19 16 17 17 17 18
2 3 3 4 4 5 5 4 4 5 7 9 9 9 6 6 9 12 14 16 17 17 17 17 18 19 20 20 20 19 19 20 21 22 24 25 27 28 30 31 32 33 33 33 34 33 32 30 30 29 29 29 29 30 31 32 33 33 33 32 32 32 32 33 34 35 35 35 35 36 35 33 31 28 25 23 21 21 22 20 17 15 15 14 13 14
2 2 3 4 5 5 5 6 7 8 9 9 9 10 10 12 14 16 17 17 17 18 20 20 21 20 21 21 21 21 22 23 24 26 28 30 32 33 34 34 34 34 34 34 33 33 32 31 30 29 29 29 29 29 29 29 29 28 27 27 28 28 29 30 30 30 30 30 31 33 34 34 33 30 27 25 24 22 20 16 14 12 12 11 11 12
3 3 4 5 6 6 7 7 8 9 10 11 12 12 14 15 17 18 19 19 19 19 21 22 22 23 24 24 24 24 26 27 28 30 31 33 34 35 35 34 34 34 34 34 34 33 32 32 30 29 27 27 26 25 25 24 23 23 23 23 24 24 25 25 25 26 26 27 28 29 31 33 34 33 31 27 24 21 18 14 11 10 9 10 11 12
4 5 6 6 7 8 9 11 12 13 12 13 15 17 18 18 18 20 22 21 22 23 24 23 23 24 24 26 28 29 29 30 31 32 33 34 35 35 35 34 33 33 33 35 35 33 32 30 27 25 23 22 21 20 20 19 19 19 20 20 21 21 21 21 22 23 25 25 26 27 28 30 33 34 34 31 27 22 16 13 10 8 8 9 9 9
7 8 8 9 10 10 10 14 16 17 17 18 19 20 21 22 22 23 24 24 24 25 25 26 26 27 27 29 30 31 32 32 32 32 32 33 34 35 35 34 34 34 34 35 34 32 28 25 22 20 18 17 17 16 16 16 16 17 18 18 18 19 19 20 21 22 22 23 23 23 24 26 29 32 35 34 30 24 18 13 9 6 6 6 7 8
9 10 12 12 12 12 14 17 18 19 20 21 21 21 22 24 25 25 26 26 26 26 26 27 28 30 31 31 31 31 31 31 31 31 31 33 34 36 35 34 35 35 36 33 29 25 21 18 16 15 14 13 13 13 14 14 14 15 15 16 17 17 18 18 18 18 18 18 18 18 19 20 23 27 31 33 32 28 22 16 11 7 4 3 5 7
10 13 16 15 14 15 19 22 22 22 23 23 23 23 25 25 26 27 27 27 27 28 28 29 29 30 31 31 30 30 29 29 29 30 31 33 36 37 35 34 33 32 30 25 21 17 15 13 12 12 11 11 11 12 12 12 13 13 14 14 15 15 15 15 15 15 15 15 15 15 16 16 17 20 24 28 30 29 26 22 17 13 9 7 8 9
13 16 18 18 19 20 22 23 25 25 25 24 25 26 27 26 27 28 28 28 28 28 29 30 29 29 28 28 28 28 28 29 29 30 31 34 37 38 34 31 28 25 21 16 13 12 10 10 10 10 10 10 11 11 11 11 12 12 13 13 13 14 14 14 14 14 14 14 15 15 16 15 16 16 18 22 26 28 28 26 22 19 17 16 16 17
16 18 20 23 25 25 25 26 26 27 26 25 26 27 27 28 28 29 28 29 29 28 28 28 27 26 26 26 27 28 30 31 31 30 30 35 37 34 28 24 20 17 12 10 9 9 8 8 9 9 10 10 10 11 11 11 11 12 12 12 13 13 13 13 13 13 14 14 15 16 16 16 15 15 16 18 20 23 25 25 24 23 21 21 21 21
21 21 23 26 28 29 28 28 27 26 26 26 27 28 28 29 29 28 28 28 27 27 26 25 24 24 25 27 30 33 35 34 32 30 31 34 32 27 20 17 13 10 7 8 8 9 9 9 10 10 10 10 10 10 11 11 11 11 11 12 12 13 13 13 13 12 12 12 13 14 14 15 15 15 14 14 15 17 19 20 21 20 19 18 17 17
24 26 27 29 29 29 29 28 26 26 26 27 28 29 29 29 28 27 26 25 24 23 22 22 23 25 29 32 35 37 36 33 29 27 28 28 23 17 12 11 9 7 5 7 9 10 10 11 11 11 11 11 11 11 11 11 11 11 11 11 11 12 12 12 11 11 10 10 11 12 13 14 15 15 15 14 14 14 14 15 16 16 15 14 12 11
27 29 30 30 30 29 27 27 26 26 27 28 29 29 28 27 26 24 23 22 21 20 21 23 27 31 34 36 37 36 32 28 25 23 22 19 13 8 6 7 7 7 7 9 10 11 12 12 13 12 12 11 12 12 12 12 12 12 11 11 11 11 10 10 10 9 9 9 11 12 13 15 16 17 17 16 15 14 14 14 14 14 14 12 11 10
30 31 32 31 29 28 27 26 26 27 28 29 28 27 25 23 22 20 19 20 21 22 25 28 32 35 37 37 35 31 25 22 19 17 15 12 7 5 5 7 7 8 9 11 12 13 13 14 14 14 13 13 13 14 14 14 14 13 13 12 11 10 10 9 9 9 10 11 12 13 14 15 17 18 19 18 18 16 15 14 14 14 14 13 12 11
32 32 31 30 28 26 25 26 27 28 28 27 25 23 20 19 18 18 19 22 24 27 30 33 35 36 36 34 29 23 19 17 14 11 9 7 5 5 8 10 10 10 11 13 14 15 14 14 14 15 15 15 15 15 15 15 15 15 14 13 12 11 11 11 11 11 11 12 13 14 15 16 17 18 19 19 18 17 16 15 14 14 14 14 13 13
32 30 29 27 26 25 25 26 27 27 26 23 20 18 16 16 17 19 23 26 28 30 34 35 34 33 32 27 21 17 14 12 10 9 7 5 5 7 11 13 13 12 14 15 16 16 15 14 14 14 14 14 15 15 15 15 14 14 13 13 12 12 12 12 12 12 13 13 13 14 15 15 16 17 18 18 18 18 16 15 14 13 13 13 13 14
29 28 26 25 25 25 26 26 25 24 21 18 16 15 15 17 20 24 27 29 31 33 34 32 30 27 24 19 15 11 8 7 8 9 8 6 7 10 14 14 14 14 15 16 15 15 14 13 12 12 12 12 12 12 12 12 12 12 12 12 12 12 13 13 13 13 13 13 14 14 14 15 15 16 16 17 17 17 16 15 14 13 12 13 13 14
26 25 25 25 25 25 25 24 21 19 16 14 14 15 18 22 25 28 30 31 31 31 29 26 23 20 16 14 10 7 4 6 8 10 10 8 10 13 16 15 15 15 15 14 13 12 11 10 9 8 8 9 9 9 9 9 9 10 10 10 11 11 12 13 13 14 14 14 14 14 14 14 15 15 15 16 16 16 16 15 14 13 13 13 13 14
25 25 25 25 25 24 22 19 16 14 13 14 16 19 22 26 29 30 30 30 28 26 24 20 17 13 11 10 8 7 8 10 11 11 11 11 13 16 16 15 14 13 12 11 10 9 8 8 7 6 6 6 7 7 7 7 8 8 8 9 9 10 11 12 13 13 14 14 14 14 14 14 14 14 15 15 15 16 15 15 14 13 13 13 14 14
25 25 25 24 22 20 17 15 13 13 14 16 19 23 26 28 29 29 28 26 24 21 18 15 12 9 7 7 6 7 10 13 13 13 13 14 15 15 15 13 12 11 9 8 7 7 7 6 6 6 6 7 7 7 7 8 8 8 8 8 8 9 9 10 11 12 13 13 13 13 13 14 14 14 14 15 15 15 15 14 14 13 13 13 13 14
24 24 23 21 18 15 13 12 12 14 17 19 22 25 27 27 27 25 23 20 18 16 14 12 10 9 8 7 7 8 11 13 15 15 15 15 15 14 12 10 9 8 7 6 6 6 7 8 8 8 9 9 9 9 10 10 10 9 9 9 9 9 9 9 10 11 12 13 13 13 13 13 13 14 14 14 14 14 14 14 13 13 12 12 12 13
22 21 19 17 14 12 11 12 14 17 19 22 24 25 26 25 23 20 17 15 13 12 10 10 10 10 11 10 11 12 13 15 16 16 15 13 12 11 9 8 7 7 7 7 8 9 10 11 11 12 12 13 13 13 13 13 13 12 11 11 10 10 9 9 9 10 10 11 12 13 13 13 13 13 14 14 14 14 14 14 13 13 12 12 12 12
20 18 15 13 11 10 11 13 16 19 21 22 24 24 24 22 19 16 13 11 10 10 9 8 9 10 11 12 14 15 16 16 16 14 13 11 9 8 7 7 7 8 8 10 11 13 14 15 15 15 16 16 16 17 16 16 16 15 15 14 13 12 11 10 10 9 10 10 11 12 12 13 13 13 13 14 14 14 14 14 14 13 13 12 12 12
17 14 12 10 10 11 13 15 18 20 21 22 22 22 21 18 15 12 10 10 10 9 9 9 10 10 11 13 14 16 17 16 14 12 10 9 8 7 7 8 9 10 12 14 15 16 17 18 18 18 18 18 18 18 18 18 18 18 18 17 17 16 15 13 11 10 10 10 11 11 12 12 13 13 13 13 13 14 14 14 14 14 14 13 12 12
14 12 10 9 10 12 14 17 19 21 21 21 21 19 17 14 12 10 9 9 10 10 10 11 12 12 13 13 14 15 15 13 12 11 9 8 8 8 9 11 12 14 16 17 18 19 19 19 18 18 18 17 17 17 17 18 18 18 19 19 19 19 18 16 15 13 12 11 11 11 12 12 13 13 13 13 13 13 13 13 14 14 14 14 13 13
12 10 9 10 11 13 16 18 20 21 21 20 19 17 14 12 10 9 9 10 10 11 11 13 13 14 14 14 13 13 13 12 10 9 8 9 10 11 12 14 16 18 18 19 19 18 18 17 16 16 15 15 15 15 15 16 16 17 17 18 19 20 20 19 18 16 14 12 12 11 12 12 13 13 13 13 13 12 12 12 12 13 13 13 13 13
10 10 9 10 12 15 17 19 20 20 20 19 17 15 13 10 9 8 9 10 11 12 12 14 14 15 14 14 13 12 11 10 9 9 9 10 12 14 16 17 18 19 18 18 17 16 15 14 13 13 13 13 13 13 13 14 14 15 16 18 18 19 19 20 19 18 16 14 13 12 11 12 12 13 13 13 13 12 12 12 12 12 12 12 12 13
10 10 10 11 14 16 18 20 20 19 18 17 15 13 11 9 8 8 9 10 11 12 13 14 14 14 14 13 12 11 10 9 9 10 11 13 15 17 18 19 18 17 16 14 13 13 12 12 12 12 13 13 13 13 13 13 14 15 16 17 17 18 19 19 19 19 18 16 14 13 12 12 12 12 12 13 13 12 12 12 12 11 10 10 11 11
10 10 11 12 15 17 19 19 19 18 16 15 14 12 9 8 7 8 9 11 12 13 14 14 14 13 12 12 11 10 10 10 11 12 14 16 18 19 18 17 15 14 12 11 11 11 11 12 12 13 13 13 14 14 14 14 14 15 15 15 16 17 18 19 19 19 19 17 16 14 12 12 11 11 11 12 12 12 13 12 12 11 11 10 10 10
11 11 12 13 15 17 18 18 17 15 14 14 12 11 8 7 7 8 10 12 13 14 14 14 13 13 11 11 10 10 10 11 13 15 17 19 19 18 16 14 12 11 10 10 10 11 11 12 13 13 14 14 14 14 14 14 14 15 14 14 15 17 18 18 19 19 20 19 18 16 14 12 11 11 11 11 11 12 13 12 12 12 11 11 10 10
11 12 13 15 16 18 18 17 15 13 13 12 11 9 7 6 7 8 11 13 14 15 14 14 13 12 11 10 10 10 11 14 16 18 19 19 17 15 13 11 10 9 10 10 11 11 12 12 13 14 13 14 14 14 14 15 15 15 15 15 17 17 17 18 19 19 19 20 19 18 16 14 12 11 10 10 11 12 13 13 13 13 12 12 11 10
12 12 14 15 17 17 17 15 14 13 12 12 10 9 7 6 7 8 11 13 14 15 14 13 12 11 11 10 11 12 13 16 18 19 19 17 14 12 10 10 10 10 11 11 11 11 12 12 13 13 13 13 13 13 13 14 14 15 15 16 17 17 17 20 21 21 20 21 20 19 18 16 14 12 10 9 10 11 12 13 13 14 14 13 12 11
12 13 14 16 16 16 15 14 13 12 12 11 10 8 6 6 7 9 12 14 14 14 14 13 12 11 10 11 12 14 16 18 19 18 16 14 12 10 10 10 10 11 12 12 12 11 12 12 13 13 13 13 12 12 12 13 13 14 15 17 17 17 18 21 22 22 22 23 23 22 20 18 16 13 11 10 10 10 12 13 13 14 15 14 13 12
13 14 15 16 16 16 15 13 13 12 11 10 9 7 6 7 8 10 12 14 15 14 13 12 11 11 11 11 13 16 19 19 19 17 14 12 10 10 10 11 12 12 12 12 12 12 12 12 11 11 12 12 12 12 12 12 13 14 15 17 18 19 21 22 22 23 24 24 24 24 23 21 18 15 13 12 11 11 11 12 13 14 14 14 13 12
14 15 16 16 16 15 14 13 12 11 11 10 8 7 6 7 8 11 13 14 14 14 13 12 11 11 11 13 15 18 19 18 16 14 11 10 10 10 11 12 12 13 13 13 12 12 12 12 11 11 11 11 11 11 11 12 13 15 16 18 20 22 23 24 24 25 26 26 26 26 27 24 21 17 14 13 11 11 11 11 12 13 14 14 14 13
14 15 16 16 16 15 13 12 11 11 11 10 8 7 6 7 9 11 13 14 14 13 12 11 11 12 13 15 17 18 18 16 14 11 10 10 11 11 12 12 13 13 14 14 13 13 12 12 11 11 11 11 11 11 11 13 14 16 18 20 22 25 26 27 27 28 28 28 28 28 28 27 24 21 19 15 12 11 11 11 12 13 13 14 14 13
15 16 16 16 16 14 13 12 11 11 11 10 8 7 6 7 9 11 14 14 14 13 12 12 12 13 14 17 18 18 16 14 12 11 10 11 11 12 12 13 13 13 14 14 14 13 12 12 12 12 12 11 11 11 12 14 16 18 20 23 26 28 30 30 30 30 30 30 30 30 30 28 26 24 21 17 15 13 12 12 13 13 13 13 13 13
15 16 16 16 15 14 12 12 11 11 10 10 8 7 7 8 10 12 14 14 14 13 12 12 13 14 16 18 18 17 14 12 11 11 11 12 12 12 12 12 13 13 13 13 13 12 11 12 12 13 13 12 12 12 13 15 17 20 23 26 29 31 31 31 31 31 31 31 32 32 32 30 28 26 22 18 16 15 14 13 13 13 13 13 13 13
16 16 17 16 15 13 12 11 11 11 11 10 8 7 7 8 10 12 14 14 13 13 12 12 14 15 17 18 17 15 13 12 11 12 12 12 12 12 12 12 12 12 13 13 12 11 10 10 10 12 13 13 14 14 15 17 19 22 25 27 29 30 31 30 30 30 31 32 32 33 33 33 31 28 24 20 18 17 16 15 14 13 13 12 13 13
Height
5608 5606 5605 5603 5602 5600 5598 5596 5594 5592 5590 5588 5586 5584 5582 5580 5578 5576 5573 5571 5568 5566 5564 5562 5560 5558 5555 5553 5550 5547 5545 5542 5540 5538 5535 5533 5531 5528 5526 5524 5521 5519 5516 5513 5511 5508 5505 5502 5500 5497 5495 5492 5490 5488 5486 5484 5482 5481 5479 5477 5475 5474 5472 5470 5468 5467 5466 5466 5465 5464 5463 5463 5462 5462 5462 5462 5462 5462 5461 5462 5462 5463 5463 5463 5464 5466
5603 5602 5600 5598 5597 5595 5593 5591 5589 5587 5584 5582 5581 5579 5577 5575 5572 5570 5568 5565 5563 5560 5558 5555 5553 5551 5549 5546 5543 5541 5538 5535 5532 5530 5527 5525 5522 5519 5517 5514 5512 5509 5506 5504 5501 5498 5495 5492 5489 5487 5484 5482 5479 5477 5474 5473 5471 5470 5468 5466 5465 5463 5461 5459 5457 5456 5456 5455 5455 5454 5453 5453 5452 5451 5451 5451 5451 5451 5451 5451 5452 5452 5452 5453 5454 5456
5599 5597 5596 5594 5592 5590 5588 5586 5583 5581 5579 5576 5574 5572 5571 5569 5566 5564 5562 5559 5556 5554 5551 5548 5546 5543 5541 5538 5536 5533 5530 5527 5525 5522 5519 5516 5513 5510 5507 5505 5502 5499 5496 5493 5490 5487 5485 5482 5479 5476 5473 5471 5468 5466 5464 5462 5460 5459 5457 5456 5454 5452 5450 5448 5447 5446 5446 5445 5444 5443 5442 5442 5441 5441 5441 5441 5441 5441 5441 5441 5441 5442 5442 5443 5445 5446
5594 5592 5590 5589 5587 5585 5583 5580 5577 5575 5573 5571 5568 5566 5564 5562 5560 5558 5555 5553 5550 5547 5544 5541 5538 5536 5532 5530 5527 5525 5522 5519 5516 5513 5511 5508 5505 5501 5498 5495 5492 5489 5486 5483 5480 5477 5474 5471 5469 5466 5463 5461 5458 5456 5454 5451 5449 5448 5446 5445 5443 5441 5439 5437 5436 5436 5435 5434 5433 5432 5432 5431 5431 5431 5431 5431 5431 5431 5431 5431 5432 5432 5432 5433 5435 5436
5590 5587 5585 5583 5581 5580 5577 5575 5572 5569 5566 5564 5562 5560 5557 5555 5553 5551 5548 5546 5543 5540 5536 5533 5530 5527 5524 5521 5518 5516 5513 5511 5507 5505 5502 5499 5496 5493 5489 5486 5483 5479 5476 5473 5470 5467 5464 5462 5459 5456 5453 5451 5448 5446 5443 5440 5438 5437 5435 5434 5432 5430 5428 5427 5426 5425 5423 5423 5422 5421 5421 5421 5421 5420 5420 5421 5421 5421 5421 5421 5421 5422 5422 5423 5424 5425
5585 5582 5579 5577 5575 5573 5571 5568 5565 5562 5559 5557 5555 5553 5551 5548 5546 5543 5541 5538 5535 5532 5529 5526 5522 5519 5516 5512 5509 5506 5504 5501 5499 5496 5493 5490 5487 5484 5481 5477 5474 5470 5467 5464 5461 5457 5455 5452 5449 5446 5444 5441 5438 5436 5433 5430 5428 5426 5424 5422 5420 5418 5417 5416 5415 5414 5412 5412 5411 5410 5410 5410 5410 5410 5410 5410 5410 5410 5411 5411 5411 5412 5413 5414 5415 5416
5579 5576 5574 5571 5568 5566 5564 5562 5558 5555 5552 5550 5548 5546 5544 5541 5539 5536 5533 5530 5527 5524 5521 5518 5515 5511 5508 5505 5501 5497 5494 5492 5489 5487 5484 5481 5479 5476 5473 5469 5466 5462 5458 5455 5451 5448 5445 5442 5440 5437 5434 5432 5429 5426 5424 5421 5418 5416 5414 5412 5410 5408 5407 5406 5405 5404 5403 5402 5401 5401 5400 5400 5400 5400 5400 5400 5401 5401 5401 5402 5402 5403 5404 5406 5407 5408
5572 5570 5568 5566 5563 5560 5557 5555 5552 5548 5545 5542 5540 5538 5536 5534 5531 5529 5526 5523 5520 5516 5513 5510 5506 5503 5500 5497 5493 5489 5485 5482 5480 5477 5475 5472 5469 5466 5464 5461 5457 5453 5449 5446 5442 5439 5436 5433 5430 5427 5425 5422 5420 5417 5415 5412 5410 5408 5406 5403 5401 5399 5398 5397 5396 5396 5395 5394 5393 5392 5392 5392 5392 5392 5392 5392 5392 5393 5394 5394 5395 5396 5396 5398 5399 5400
5566 5564 5561 5559 5556 5554 5551 5547 5544 5541 5538 5535 5532 5529 5527 5525 5523 5520 5518 5516 5512 5509 5505 5501 5498 5495 5491 5488 5485 5481 5477 5473 5470 5467 5465 5463 5460 5456 5454 5451 5448 5444 5441 5437 5434 5431 5427 5424 5421 5417 5415 5412 5411 5409 5407 5404 5402 5400 5398 5396 5393 5391 5390 5389 5388 5387 5387 5386 5386 5385 5386 5386 5386 5386 5385 5385 5386 5386 5387 5388 5389 5389 5390 5391 5392 5393
5560 5557 5555 5552 5550 5547 5545 5541 5537 5533 5531 5528 5524 5521 5518 5516 5514 5512 5509 5507 5504 5501 5498 5494 5490 5487 5483 5479 5475 5472 5469 5466 5462 5459 5456 5453 5451 5447 5443 5441 5438 5435 5432 5429 5425 5422 5419 5415 5412 5409 5406 5404 5402 5400 5398 5396 5395 5392 5390 5388 5386 5384 5383 5381 5381 5380 5380 5380 5380 5380 5380 5380 5380 5380 5380 5380 5380 5381 5381 5383 5383 5384 5385 5386 5387 5388
5553 5551 5549 5546 5543 5540 5537 5534 5530 5526 5523 5520 5516 5513 5509 5507 5505 5503 5501 5497 5494 5492 5490 5486 5482 5479 5476 5472 5467 5462 5459 5458 5455 5452 5448 5445 5441 5438 5434 5431 5428 5425 5423 5420 5417 5414 5411 5407 5404 5401 5399 5396 5395 5393 5391 5389 5388 5386 5384 5382 5380 5378 5376 5375 5374 5373 5373 5374 5374 5374 5374 5374 5375 5375 5374 5375 5376 5376 5376 5377 5378 5379 5380 5381 5382 5384
5547 5544 5542 5539 5536 5533 5529 5526 5522 5519 5516 5513 5509 5506 5501 5497 5495 5493 5491 5488 5485 5482 5481 5477 5474 5470 5466 5464 5459 5454 5450 5448 5446 5445 5441 5438 5434 5430 5426 5423 5419 5416 5414 5412 5409 5406 5403 5400 5397 5395 5392 5390 5388 5386 5385 5383 5381 5380 5378 5376 5374 5373 5371 5370 5369 5368 5368 5368 5369 5369 5369 5369 5369 5369 5370 5370 5371 5372 5373 5373 5374 5375 5376 5377 5378 5379
5541 5538 5535 5532 5529 5525 5522 5518 5514 5511 5507 5504 5501 5498 5494 5490 5486 5483 5481 5478 5475 5472 5471 5469 5466 5461 5457 5454 5450 5446 5442 5440 5437 5436 5434 5431 5427 5422 5419 5415 5412 5409 5407 5404 5401 5399 5396 5394 5391 5389 5387 5385 5383 5381 5380 5378 5376 5375 5373 5371 5370 5368 5367 5366 5365 5364 5364 5364 5364 5364 5364 5363 5363 5364 5364 5365 5366 5367 5368 5369 5370 5371 5372 5373 5374 5376
5534 5531 5527 5524 5521 5517 5514 5510 5506 5503 5499 5495 5492 5489 5486 5481 5477 5474 5471 5469 5465 5462 5460 5459 5456 5453 5450 5446 5442 5437 5434 5431 5428 5427 5426 5423 5420 5416 5412 5408 5405 5402 5400 5398 5395 5393 5391 5388 5386 5384 5382 5381 5378 5377 5375 5373 5372 5370 5369 5367 5366 5365 5364 5363 5362 5361 5361 5360 5360 5360 5359 5359 5359 5359 5360 5360 5361 5362 5364 5364 5366 5367 5368 5369 5371 5371
5527 5524 5520 5516 5513 5509 5506 5502 5498 5494 5490 5486 5483 5480 5476 5473 5469 5465 5462 5460 5456 5453 5451 5449 5447 5445 5442 5439 5435 5431 5426 5423 5420 5418 5417 5416 5412 5408 5405 5401 5398 5396 5394 5392 5390 5387 5386 5384 5382 5380 5378 5376 5375 5373 5371 5370 5368 5367 5366 5364 5363 5362 5361 5360 5359 5359 5358 5357 5357 5356 5356 5355 5355 5355 5356 5356 5357 5359 5360 5361 5362 5363 5364 5366 5367 5369
5521 5517 5513 5509 5505 5501 5497 5493 5490 5486 5482 5478 5474 5471 5467 5464 5461 5456 5453 5450 5447 5444 5442 5439 5437 5436 5434 5431 5427 5424 5420 5416 5412 5410 5410 5408 5405 5401 5398 5395 5392 5391 5389 5387 5385 5383 5381 5380 5378 5376 5375 5373 5371 5370 5368 5367 5365 5364 5363 5361 5361 5360 5359 5358 5357 5356 5356 5355 5354 5353 5353 5352 5352 5352 5353 5353 5354 5356 5357 5358 5359 5360 5361 5363 5364 5366
5513 5509 5505 5501 5496 5493 5489 5485 5481 5477 5473 5469 5465 5462 5459 5456 5452 5449 5446 5442 5439 5436 5433 5430 5428 5426 5424 5422 5419 5416 5413 5410 5406 5403 5403 5401 5399 5396 5392 5390 5387 5386 5385 5383 5381 5380 5378 5376 5375 5373 5372 5370 5369 5367 5366 5364 5363 5361 5361 5360 5359 5358 5357 5356 5355 5354 5354 5353 5352 5351 5351 5351 5350 5350 5350 5351 5352 5353 5354 5355 5356 5357 5359 5360 5361 5363
5505 5501 5496 5492 5488 5484 5480 5477 5473 5469 5464 5460 5456 5453 5450 5447 5444 5441 5439 5435 5431 5428 5425 5422 5419 5417 5416 5414 5411 5408 5406 5403 5400 5397 5397 5396 5394 5391 5388 5385 5383 5381 5381 5380 5378 5377 5375 5374 5372 5371 5369 5367 5366 5364 5363 5362 5361 5360 5359 5358 5357 5356 5355 5355 5354 5353 5352 5351 5351 5350 5349 5349 5348 5348 5348 5349 5350 5351 5351 5352 5354 5355 5356 5357 5359 5360
5496 5492 5488 5484 5479 5475 5471 5467 5464 5461 5456 5452 5448 5445 5442 5439 5436 5434 5431 5428 5425 5422 5418 5416 5413 5410 5408 5406 5403 5401 5399 5396 5393 5391 5391 5390 5388 5386 5383 5381 5379 5378 5378 5377 5376 5375 5373 5371 5370 5368 5367 5365 5363 5362 5361 5360 5359 5358 5357 5356 5356 5355 5354 5353 5352 5351 5351 5350 5349 5349 5349 5348 5347 5347 5347 5347 5348 5349 5350 5351 5351 5352 5354 5355 5356 5357
5488 5484 5479 5475 5471 5468 5463 5459 5455 5452 5448 5444 5441 5437 5434 5432 5430 5427 5424 5421 5418 5415 5412 5410 5407 5404 5402 5400 5397 5395 5392 5390 5387 5386 5385 5384 5383 5382 5380 5378 5376 5376 5376 5375 5374 5372 5371 5369 5367 5366 5364 5363 5361 5360 5359 5358 5357 5356 5356 5355 5354 5353 5352 5352 5351 5350 5350 5349 5348 5348 5347 5347 5347 5346 5346 5346 5346 5347 5348 5349 5350 5351 5351 5352 5354 5355
5480 5476 5471 5466 5463 5460 5456 5452 5447 5443 5440 5437 5434 5431 5427 5425 5422 5420 5417 5415 5412 5409 5406 5404 5401 5399 5397 5394 5392 5389 5387 5385 5382 5380 5380 5380 5379 5378 5377 5375 5374 5374 5374 5373 5371 5370 5368 5366 5365 5364 5362 5361 5360 5358 5357 5357 5356 5355 5354 5353 5353 5352 5351 5351 5350 5349 5348 5348 5347 5346 5346 5346 5345 5345 5345 5345 5345 5345 5346 5347 5348 5349 5350 5351 5352 5353
5472 5468 5463 5458 5454 5451 5448 5444 5440 5436 5433 5431 5428 5425 5421 5419 5416 5413 5411 5408 5406 5404 5401 5399 5396 5394 5392 5390 5387 5385 5382 5380 5377 5376 5375 5375 5376 5376 5375 5373 5372 5372 5371 5370 5369 5367 5366 5364 5363 5361 5360 5359 5358 5357 5356 5355 5354 5353 5353 5352 5351 5351 5350 5349 5348 5347 5347 5346 5346 5345 5345 5345 5344 5344 5344 5344 5344 5344 5345 5345 5346 5347 5348 5349 5350 5351
5463 5460 5456 5452 5447 5443 5440 5436 5433 5430 5427 5424 5422 5419 5416 5414 5411 5408 5405 5403 5401 5398 5396 5394 5392 5390 5388 5386 5383 5381 5379 5376 5374 5372 5371 5372 5373 5373 5372 5371 5370 5370 5369 5368 5366 5365 5364 5362 5361 5359 5358 5357 5356 5355 5354 5353 5352 5351 5351 5350 5350 5349 5348 5347 5347 5346 5346 5345 5345 5344 5344 5344 5343 5343 5343 5343 5343 5343 5343 5344 5345 5346 5346 5347 5349 5350
5456 5453 5449 5445 5441 5437 5433 5430 5427 5424 5421 5418 5416 5413 5410 5408 5406 5403 5401 5399 5396 5394 5391 5390 5388 5386 5384 5382 5380 5377 5375 5373 5371 5370 5369 5370 5370 5371 5370 5369 5368 5367 5366 5366 5364 5362 5361 5360 5358 5357 5356 5355 5354 5353 5352 5351 5351 5350 5349 5348 5348 5347 5346 5346 5345 5345 5344 5344 5343 5343 5343 5342 5342 5342 5342 5342 5342 5342 5342 5343 5343 5344 5345 5346 5347 5348
5451 5447 5444 5440 5436 5432 5429 5425 5422 5419 5416 5413 5410 5407 5405 5403 5401 5399 5397 5395 5392 5390 5387 5386 5384 5382 5381 5379 5377 5375 5373 5371 5369 5368 5368 5368 5368 5368 5368 5366 5365 5365 5364 5363 5362 5360 5359 5357 5356 5355 5354 5353 5352 5351 5350 5350 5349 5348 5347 5347 5346 5346 5345 5344 5344 5343 5343 5342 5342 5342 5341 5341 5341 5341 5341 5341 5341 5341 5341 5341 5342 5343 5344 5345 5346 5347
5445 5442 5438 5435 5431 5428 5424 5421 5417 5414 5411 5408 5405 5403 5401 5399 5397 5395 5393 5391 5388 5386 5384 5382 5380 5378 5377 5376 5374 5373 5371 5369 5368 5367 5366 5366 5366 5366 5366 5364 5363 5362 5362 5361 5360 5358 5356 5355 5354 5353 5352 5351 5350 5349 5348 5348 5347 5346 5346 5345 5345 5344 5343 5343 5342 5342 5341 5341 5341 5341 5340 5340 5340 5340 5340 5340 5340 5340 5340 5341 5341 5341 5342 5343 5344 5345
5439 5436 5433 5429 5426 5422 5419 5416 5413 5411 5408 5405 5402 5399 5397 5395 5393 5391 5389 5387 5385 5382 5380 5378 5376 5375 5374 5373 5372 5371 5370 5368 5366 5366 5366 5365 5365 5364 5363 5362 5361 5361 5360 5359 5358 5356 5354 5353 5352 5351 5350 5349 5348 5347 5347 5346 5346 5345 5344 5343 5343 5342 5342 5341 5341 5341 5340 5340 5340 5339 5339 5339 5339 5339 5339 5339 5339 5339 5339 5339 5340 5340 5341 5342 5343 5344
5435 5431 5428 5425 5421 5418 5415 5412 5410 5407 5405 5402 5399 5396 5394 5391 5389 5387 5385 5384 5381 5379 5377 5376 5374 5373 5372 5371 5371 5370 5368 5367 5366 5365 5364 5364 5363 5362 5361 5360 5359 5359 5358 5357 5356 5354 5352 5351 5350 5350 5349 5348 5347 5346 5346 5345 5344 5344 5343 5342 5341 5341 5340 5340 5340 5339 5339 5339 5339 5338 5338 5338 5338 5338 5338 5338 5338 5338 5338 5338 5339 5339 5340 5340 5341 5342
5431 5428 5424 5421 5418 5415 5412 5409 5407 5405 5402 5399 5397 5394 5391 5389 5386 5384 5382 5380 5378 5376 5375 5374 5373 5371 5370 5369 5369 5368 5367 5366 5364 5363 5363 5362 5361 5361 5359 5358 5357 5357 5356 5356 5354 5352 5350 5349 5348 5348 5347 5346 5346 5345 5344 5344 5343 5342 5341 5341 5340 5339 5339 5338 5338 5338 5338 5337 5337 5337 5337 5337 5337 5337 5337 5337 5337 5337 5337 5337 5338 5338 5339 5339 5340 5341
5427 5424 5421 5417 5415 5412 5409 5406 5404 5402 5399 5397 5394 5391 5389 5386 5384 5381 5379 5378 5376 5375 5373 5372 5371 5370 5369 5368 5367 5366 5366 5364 5363 5362 5361 5361 5360 5359 5357 5356 5356 5355 5354 5354 5352 5351 5349 5347 5346 5346 5346 5345 5344 5344 5343 5342 5342 5341 5340 5339 5338 5338 5337 5337 5337 5336 5336 5336 5336 5336 5336 5336 5336 5336 5336 5336 5336 5336 5336 5337 5337 5337 5338 5338 5339 5340
5424 5421 5417 5414 5411 5409 5406 5404 5402 5399 5397 5394 5392 5389 5386 5384 5381 5379 5377 5376 5374 5373 5372 5371 5370 5369 5367 5366 5366 5365 5364 5363 5362 5361 5360 5359 5358 5357 5356 5355 5354 5353 5352 5352 5351 5350 5349 5347 5345 5344 5344 5343 5342 5342 5341 5341 5340 5339 5339 5338 5337 5336 5336 5336 5335 5335 5335 5335 5335 5335 5335 5335 5335 5335 5335 5335 5335 5335 5336 5336 5336 5336 5337 5337 5338 5339
5421 5417 5414 5411 5409 5406 5404 5401 5399 5397 5394 5391 5389 5386 5384 5382 5380 5378 5376 5375 5373 5372 5371 5370 5369 5368 5367 5366 5365 5363 5362 5361 5360 5359 5358 5357 5356 5356 5354 5353 5352 5351 5351 5350 5350 5349 5348 5346 5345 5343 5342 5341 5341 5340 5340 5339 5338 5338 5337 5336 5336 5335 5334 5334 5334 5334 5334 5334 5333 5333 5333 5333 5333 5333 5334 5334 5334 5334 5335 5335 5336 5336 5336 5337 5337 5338
5417 5414 5411 5409 5406 5404 5401 5399 5396 5394 5391 5389 5386 5384 5382 5380 5378 5376 5375 5374 5372 5371 5370 5369 5368 5367 5366 5365 5363 5362 5361 5360 5358 5357 5356 5356 5355 5354 5353 5352 5351 5350 5349 5348 5348 5347 5346 5345 5344 5342 5341 5340 5339 5338 5337 5337 5336 5336 5335 5335 5334 5333 5333 5332 5332 5332 5332 5332 5332 5332 5332 5332 5332 5332 5332 5333 5333 5333 5334 5334 5335 5336 5336 5336 5337 5338
5414 5411 5409 5406 5404 5401 5399 5396 5394 5391 5389 5386 5385 5382 5381 5379 5377 5376 5374 5372 5371 5370 5369 5367 5366 5366 5365 5363 5362 5361 5360 5358 5357 5356 5355 5355 5354 5353 5352 5351 5350 5349 5348 5347 5346 5345 5344 5343 5342 5341 5339 5338 5337 5336 5335 5335 5334 5334 5333 5333 5332 5332 5331 5331 5331 5330 5330 5331 5331 5331 5331 5331 5331 5331 5331 5332 5332 5332 5333 5333 5334 5334 5335 5336 5336 5337
5411 5409 5406 5404 5401 5399 5397 5394 5392 5389 5387 5385 5383 5381 5379 5378 5376 5375 5373 5371 5370 5368 5367 5366 5365 5364 5363 5362 5361 5360 5358 5357 5356 5355 5354 5353 5353 5352 5351 5349 5348 5347 5346 5345 5344 5343 5342 5341 5340 5339 5337 5336 5335 5334 5333 5332 5332 5331 5331 5331 5331 5330 5330 5329 5329 5329 5329 5329 5329 5329 5329 5330 5330 5330 5331 5331 5331 5332 5332 5333 5333 5334 5335 5335 5336 5336
5409 5406 5404 5402 5400 5397 5395 5392 5390 5387 5385 5383 5381 5380 5378 5377 5375 5374 5372 5371 5369 5367 5366 5365 5363 5362 5361 5361 5360 5359 5357 5356 5355 5353 5353 5352 5351 5351 5349 5348 5347 5346 5345 5344 5342 5341 5340 5339 5338 5337 5336 5335 5334 5332 5331 5330 5330 5329 5329 5329 5328 5328 5328 5327 5327 5327 5327 5327 5327 5327 5328 5328 5329 5329 5330 5330 5331 5331 5332 5332 5333 5333 5334 5335 5335 5336
5406 5404 5402 5400 5397 5395 5393 5391 5388 5386 5384 5382 5381 5379 5377 5376 5374 5373 5371 5370 5368 5366 5365 5364 5362 5361 5360 5359 5358 5357 5356 5355 5353 5352 5351 5351 5350 5349 5348 5346 5345 5344 5343 5342 5341 5340 5338 5337 5336 5335 5334 5333 5332 5331 5330 5329 5328 5327 5327 5326 5326 5326 5326 5326 5325 5325 5325 5325 5325 5326 5326 5326 5327 5328 5328 5329 5330 5331 5331 5332 5332 5333 5334 5334 5335 5335
5403 5401 5400 5397 5395 5393 5391 5389 5387 5385 5383 5381 5380 5378 5376 5375 5373 5372 5370 5368 5367 5366 5364 5362 5361 5360 5358 5357 5356 5356 5355 5353 5352 5351 5350 5349 5348 5347 5346 5345 5343 5342 5341 5340 5339 5338 5337 5336 5334 5333 5332 5331 5331 5330 5329 5327 5326 5326 5325 5324 5324 5324 5324 5323 5323 5323 5323 5323 5323 5324 5324 5325 5325 5326 5327 5328 5328 5329 5330 5331 5332 5332 5333 5333 5334 5335
5401 5399 5397 5395 5393 5391 5389 5387 5385 5383 5381 5380 5378 5377 5376 5374 5372 5371 5369 5367 5366 5364 5363 5361 5360 5358 5357 5356 5355 5354 5353 5352 5351 5350 5349 5348 5346 5345 5344 5343 5341 5341 5339 5338 5338 5337 5336 5334 5333 5332 5331 5330 5329 5328 5327 5326 5325 5324 5323 5323 5322 5322 5321 5321 5321 5321 5321 5321 5321 5322 5322 5323 5324 5325 5326 5326 5327 5328 5329 5330 5331 5331 5332 5332 5333 5334
5399 5397 5395 5393 5391 5389 5387 5385 5384 5382 5380 5379 5377 5376 5374 5373 5371 5370 5368 5366 5364 5363 5361 5360 5359 5357 5356 5355 5354 5353 5352 5351 5350 5349 5347 5346 5345 5344 5343 5341 5340 5339 5338 5337 5336 5335 5334 5333 5332 5331 5330 5329 5327 5326 5326 5325 5324 5323 5322 5321 5320 5320 5319 5319 5319 5319 5319 5319 5320 5320 5321 5321 5322 5323 5324 5325 5326 5327 5328 5329 5330 5330 5331 5331 5332 5333
5396 5395 5393 5391 5389 5387 5385 5384 5382 5380 5379 5377 5376 5375 5373 5372 5370 5369 5367 5365 5363 5361 5360 5359 5357 5356 5355 5354 5353 5352 5351 5350 5349 5347 5346 5345 5344 5343 5341 5340 5339 5338 5337 5336 5335 5334 5333 5332 5331 5330 5328 5327 5326 5325 5324 5323 5322 5321 5321 5320 5319 5318 5317 5317 5316 5317 5317 5317 5317 5318 5319 5320 5321 5322 5323 5324 5325 5326 5327 5328 5328 5329 5330 5331 5331 5332
5394 5392 5391 5389 5387 5385 5384 5382 5380 5379 5377 5376 5375 5373 5372 5371 5369 5367 5366 5364 5362 5361 5359 5358 5356 5355 5354 5353 5352 5351 5350 5349 5348 5346 5345 5344 5343 5341 5341 5339 5338 5337 5336 5335 5334 5332 5332 5331 5330 5328 5327 5326 5325 5323 5322 5321 5320 5319 5319 5318 5317 5316 5315 5315 5314 5314 5315 5315 5316 5316 5317 5318 5319 5321 5322 5323 5324 5325 5326 5326 5327 5328 5329 5330 5331 5332
5392 5391 5389 5387 5385 5383 5382 5380 5379 5377 5376 5375 5373 5372 5371 5369 5368 5366 5365 5363 5361 5360 5358 5357 5356 5355 5353 5352 5351 5350 5349 5348 5347 5346 5344 5343 5342 5341 5340 5339 5337 5336 5335 5334 5332 5331 5330 5329 5328 5327 5326 5325 5323 5322 5321 5320 5318 5317 5316 5316 5315 5314 5313 5312 5312 5312 5312 5313 5313 5314 5315 5316 5317 5319 5320 5321 5323 5324 5325 5326 5327 5328 5329 5330 5331 5331
5390 5388 5386 5385 5383 5382 5380 5379 5377 5376 5375 5373 5372 5371 5369 5368 5366 5365 5364 5362 5361 5359 5357 5356 5355 5354 5353 5351 5350 5349 5348 5347 5346 5345 5343 5342 5341 5340 5339 5338 5337 5336 5334 5333 5331 5330 5329 5328 5327 5326 5325 5323 5322 5321 5319 5318 5317 5316 5314 5313 5313 5312 5311 5311 5310 5310 5310 5311 5311 5312 5313 5314 5315 5317 5318 5320 5321 5322 5324 5325 5326 5327 5328 5329 5330 5331
5388 5386 5385 5383 5381 5380 5379 5377 5376 5375 5373 5372 5371 5369 5368 5366 5365 5364 5362 5361 5359 5358 5356 5355 5354 5353 5352 5351 5349 5348 5347 5346 5345 5344 5343 5341 5341 5340 5338 5337 5336 5335 5333 5332 5331 5330 5328 5327 5326 5325 5323 5322 5321 5319 5318 5316 5315 5314 5313 5311 5310 5310 5309 5308 5308 5307 5308 5308 5309 5310 5311 5312 5313 5315 5316 5318 5320 5321 5323 5324 5325 5326 5327 5328 5329 5330
5386 5384 5382 5381 5380 5378 5377 5376 5374 5373 5372 5371 5369 5368 5366 5365 5364 5363 5361 5360 5358 5357 5356 5355 5353 5352 5351 5350 5349 5347 5346 5346 5345 5343 5342 5341 5340 5339 5338 5336 5336 5334 5333 5331 5330 5329 5328 5326 5325 5324 5322 5321 5319 5318 5316 5315 5314 5312 5311 5310 5308 5307 5306 5306 5305 5305 5305 5306 5306 5307 5308 5310 5311 5313 5315 5316 5318 5320 5322 5323 5325 5326 5327 5327 5329 5330
5383 5382 5381 5379 5378 5376 5375 5374 5373 5372 5371 5369 5368 5366 5365 5364 5363 5361 5360 5359 5357 5356 5355 5354 5353 5351 5350 5349 5348 5347 5346 5345 5344 5343 5342 5341 5340 5338 5337 5336 5335 5334 5332 5331 5330 5328 5327 5326 5324 5323 5321 5319 5318 5316 5315 5313 5312 5311 5309 5308 5306 5305 5304 5303 5302 5302 5302 5303 5304 5305 5306 5307 5309 5311 5313 5315 5317 5319 5321 5322 5324 5325 5326 5327 5328 5329
5381 5380 5378 5377 5376 5375 5374 5372 5371 5370 5369 5368 5366 5365 5364 5363 5362 5361 5359 5358 5356 5355 5354 5353 5352 5351 5350 5348 5347 5346 5345 5344 5343 5342 5341 5340 5339 5338 5337 5336 5335 5333 5332 5331 5330 5328 5326 5325 5323 5322 5320 5319 5317 5315 5314 5312 5311 5309 5307 5306 5305 5303 5302 5301 5300 5300 5300 5301 5301 5302 5304 5305 5307 5309 5311 5313 5315 5317 5320 5321 5323 5324 5326 5326 5328 5329
5378 5377 5376 5375 5374 5373 5372 5371 5370 5369 5367 5366 5365 5364 5363 5362 5361 5359 5358 5357 5356 5354 5353 5352 5351 5350 5349 5348 5347 5346 5345 5344 5343 5342 5341 5340 5338 5337 5336 5335 5334 5333 5332 5331 5329 5328 5326 5324 5322 5321 5319 5318 5316 5315 5313 5311 5309 5308 5306 5305 5303 5301 5300 5299 5298 5298 5298 5298 5299 5300 5301 5303 5305 5307 5309 5311 5313 5316 5318 5321 5323 5324 5325 5326 5327 5329
5376 5375 5374 5373 5372 5371 5370 5369 5368 5367 5366 5365 5364 5363 5362 5361 5360 5358 5357 5356 5355 5354 5352 5351 5350 5349 5348 5347 5346 5346 5345 5344 5343 5341 5341 5339 5338 5337 5336 5334 5333 5332 5331 5330 5329 5328 5326 5324 5322 5320 5319 5317 5316 5314 5312 5311 5308 5306 5305 5303 5301 5300 5299 5297 5297 5296 5296 5297 5297 5298 5300 5301 5303 5305 5307 5310 5312 5315 5317 5320 5322 5324 5325 5326 5327 5329
5373 5372 5371 5371 5370 5369 5368 5367 5366 5366 5365 5364 5363 5362 5361 5360 5358 5357 5356 5355 5354 5353 5352 5351 5350 5349 5348 5347 5346 5345 5345 5343 5342 5341 5340 5339 5338 5336 5335 5334 5333 5331 5330 5329 5328 5327 5325 5324 5322 5320 5318 5316 5315 5313 5312 5310 5308 5306 5304 5301 5300 5298 5297 5296 5296 5296 5296 5296 5296 5297 5298 5300 5301 5303 5306 5308 5311 5314 5317 5319 5321 5323 5325 5326 5327 5329